Location: Carri�res
(48.9069°N, 2.1792°E)
Time: 19:06:13
(UTC+00:00)

SeaSat 1 - Pass Details

Date: 12 May 2021
Orbit: 744 x 747 km, 108.0° (Epoch: 12 June)

Event Time Altitude Azimuth Distance (km) Brightness Sun altitude
Rises 02:17:27 0° 20° (NNE) 3,203 7.3 -15.1°
Reaches altitude 10° 02:20:29 10° 1° (N) 2,275 5.8 -14.8°
Maximum altitude 02:23:29 16° 323° (NW) 1,865 4.7 -14.5°
Drops below altitude 10° 02:26:30 10° 285° (WNW) 2,269 4.7 -14.2°
Enters shadow 02:28:05 - 273° (W) 2,718 5.0 -14.0°
